カタログに戻る

COSMOS 1594

GLONASS

運用中ナビゲーションMEO
NORAD 15260·PAYLOAD·🇷🇺 Russia

打ち上げ Sep 4, 1984 から Baikonur Cosmodrome

Loading…

次のパス (今後24時間)

TLE

最新Source: Space-Track

元期: Sep 11, 2026, 11:17 UTC

1 15260U 84095B   26254.47064613  .00000008  00000-0  00000-0 0  9998
2 15260  64.8429  71.6075 0004200 185.0663 182.2367  2.12637033326333

AllMySatでCOSMOS 1594をリアルタイム追跡

Download on the App Store